Location: Vanderbilt Beach
(26.2700°N, 81.7900°W)
Time: 08:32:27
(UTC-04:00)

N. Korean satellite - Pass Details

Date: 22 June 2021
Orbit: 451 x 497 km, 97.2° (Epoch: 26 July)

Event Time Altitude Azimuth Distance (km) Brightness Sun altitude
Rises 05:55:15 0° 31° (NNE) 2,563 11.5 -8.7°
Reaches altitude 10° 05:57:45 10° 49° (NE) 1,686 10.9 -8.3°
Maximum altitude 06:00:27 20° 97° (E) 1,203 9.3 -7.7°
Drops below altitude 10° 06:03:09 10° 145° (SE) 1,689 9.4 -7.2°
Sets 06:05:39 0° 163° (SSE) 2,570 10.1 -6.7°
